Weather in Ölüdeniz Mah.

Turkey     36°32′57″N   29°06′54″E
temp.,
°C
wind,
m/s
gust,
m/s
humid.,
%
clouds,
%
prec.,
mm/h
press.,
hPa
HPBL,
m
9 may, sun
sun900:00+20nnw44750 0.0 101170
03:00+20n33660 0.1 101033
06:00+20n23580 0.0 101030
09:00+21wnw22535 0.0 101162
12:00+22w33565 0.0 1011110
15:00+22sse32665 0.0 1011124
18:00+22sse44675 0.0 1010110
21:00+22ese23645 0.0 100914
10 may, mon
mon1000:00+21n23552 0.0 101020
03:00+21e33504 0.0 101017
06:00+21ene44480 0.0 101134
09:00+21s01600 0.0 101370
12:00+22s23540 0.0 1013134
15:00+21s55600 0.0 1012235
18:00+21sw22640 0.0 101181
21:00+20wnw01660 0.0 101111
11 may, tue
tue1100:00+20nnw11680 0.0 101017
03:00+20n22570 0.0 100926
06:00+20nnw12530 0.0 100932
09:00+20wsw22490 0.0 101082
12:00+20ssw23594 0.0 1011181
15:00+21s34615 0.0 1010262
18:00+21w22615 0.0 1010204
21:00+19wnw45772 0.0 1010262
12 may, wed
wed1200:00+19nnw22740 0.0 100996
03:00+19nw22680 0.0 100887
06:00+19wnw33710 0.0 1009257
09:00+19wsw22705 0.0 1010202
12:00+20sw236913 0.0 1010265
15:00+20wsw22644 0.0 1011252
18:00+21nw226722 0.0 1011227
21:00+20nnw33763 0.0 101177
13 may, thu
thu1300:00+19nnw33710 0.0 1012144
03:00+19nnw22670 0.0 101180
06:00+19n22610 0.0 101148
09:00+20wsw22570 0.0 1012112
12:00+20ssw33640 0.0 1013245
15:00+21ssw33625 0.0 1013292
18:00+21ssw22625 0.0 1012241
21:00+20ese01740 0.0 101311